Location: Chiroubles
(46.1812°N, 4.6660°E)
Time: 15:24:22
(UTC+00:00)

Transit 4A - Pass Details

Date: 03 December 2020
Orbit: 864 x 980 km, 66.8° (Epoch: 26 January)

Event Time Altitude Azimuth Distance (km) Brightness Sun altitude
Rises 04:56:32 0° 155° (SSE) 3,619 11.5 -21.6°
Reaches altitude 10° 05:00:15 10° 133° (SE) 2,698 11.1 -21.0°
Maximum altitude 05:03:34 15° 101° (ESE) 2,375 11.1 -20.4°
Drops below altitude 10° 05:06:55 10° 69° (ENE) 2,730 11.2 -19.9°
Sets 05:10:42 0° 48° (NE) 3,690 11.5 -19.2°
